Home   Weather   Bucaramanga   Past weeks
Flag for Colombia

Past Weather in Bucaramanga, Colombia — Yesterday and Last 2 Weeks

Now
66 °F

Broken clouds.


Feels Like: 66 °F
Forecast: 83 / 69 °F
Wind: 5 mph from South

Location: Bucaramanga / Palonegro

Current Time: May 23, 2019 at 6:57:57 am

Latest Report: May 23, 2019 at 6:00 am


Visibility: N/A

Pressure: 30.02 "Hg (26.84 "Hg at 956m altitude)

Humidity: 100%

Dew Point: 66 °F

Location of BucaramangaLocation

Past Weather in Bucaramanga — Graph

°F

Bucaramanga Temperature Yesterday

Maximum temperature yesterday: 82 °F (at 12:00 pm)
Minimum temperature yesterday: 66 °F (at 6:00 am)
Average temperature yesterday: 74 °F

High & Low Weather Summary for the Past Weeks

 TemperatureHumidityPressure
High84 °F (May 12, 2:00 pm)100% (May 8, 6:00 am)30.08 "Hg (May 8, 6:00 am)
Low66 °F (May 10, 6:00 am)51% (May 12, 12:00 pm)29.85 "Hg (May 17, 12:00 pm)
Average73 °F89%29.99 "Hg
* Reported May 8 6:00 am — May 23 6:00 am, Bucaramanga. Weather by CustomWeather, © 2019

Note: Actual official high and low records may vary slightly from our data, if they occured in-between our weather recording intervals... More about our weather records

Advertising

Bucaramanga Weather History for the Previous 24 Hours

Scroll right to see more
 ConditionsComfort  
Time TempWeatherWind HumidityBarometerVisibility
6:00 am
Thu, May 23
66 °FBroken clouds.5 mph100%30.02 "HgN/A
11:00 pm
Wed, May 22
68 °FPassing clouds.3 mph100%30.03 "HgN/A
10:00 pm68 °FPartly cloudy.3 mph100%30.03 "HgN/A
9:00 pm66 °FPartly cloudy.8 mph100%30.02 "HgN/A
8:00 pm70 °FLight rain. Partly cloudy.3 mph100%30.01 "HgN/A
7:00 pm72 °FPartly cloudy.3 mph100%29.96 "HgN/A
6:00 pm72 °FThunderstorms. Broken clouds.10 mph100%29.93 "HgN/A
5:00 pm75 °FScattered showers. Broken clouds.7 mph83%29.91 "HgN/A
4:00 pm79 °FScattered clouds.9 mph74%29.90 "HgN/A
3:00 pm82 °FScattered clouds.13 mph66%29.90 "HgN/A
2:00 pm82 °FScattered clouds.8 mph70%29.94 "HgN/A
1:00 pm81 °FScattered clouds.N/A70%29.97 "HgN/A
12:00 pm82 °FPartly sunny.7 mph66%29.99 "HgN/A
11:00 am79 °FScattered clouds.2 mph65%30.01 "HgN/A
10:00 am77 °FScattered clouds.5 mph65%30.03 "HgN/A
9:00 am73 °FScattered clouds.5 mph78%30.04 "HgN/A
8:00 am72 °FPartly sunny.6 mph94%30.03 "HgN/A
7:00 am70 °FPartly sunny.9 mph94%30.02 "HgN/A
6:00 am66 °FPartly sunny.7 mph100%30.00 "HgN/A
Weather by CustomWeather, © 2019

See weather overview